KAITUO 1A (40904 NORAD) Tracking and Keplerian Element Data

This shows tracking and keplerian element data for the satellite.

Feedback or suggestion? Click here.




ElementValue
Catalog40904
NameKAITUO 1A
Epoch Orbit50276
Epoch Day286.89356526
Epoch Year2024
RAAN309.3924
Inclination97.471
Eccentricity0.0003331
Argument of Perigee198.5336
Mean Anonmoly161.5807
Mean Motion15.74993533
Decay Rate0.00284623
L11 40904U 15049F 24286.89356526 .00284623 00000+0 18616-2 0 9990
L22 40904 97.4710 309.3924 0003331 198.5336 161.5807 15.74993533502769



Live tracking and technical data element details for KAITUO 1A (NORAD 40904). KAITUO 1A can be tracked NOW for your location showing map with azimuth and elevation plus other details from your city location.







IsCatalogInMostPopularTable: catalog: 40904, numindb: 605
Update: records affected: 1



GetName: 40904 KAITUO 1A

Hit Count: updated at: Sat, 06 Dec 2025 13:20:08 GMT